Location: Poughquag
(41.6090°N, 73.6820°W)
Time: 05:59:39
(UTC-04:00)

ITUPSAT 1 - Pass Details

Date: 25 June 2024
Orbit: 695 x 705 km, 98.5° (Epoch: 24 July)

Event Time Altitude Azimuth Distance (km) Brightness Sun altitude
Rises 23:02:41 0° 14° (NNE) 3,107 ? -19.8°
Reaches altitude 10° 23:04:58 10° 16° (NNE) 2,184 ? -20.0°
Maximum altitude 23:09:46 80° 104° (ESE) 721 ? -20.4°
Enters shadow 23:11:19 43° 184° (S) 987 ? -20.5°
